Weather History for Phnom Penh, Cambodia

Change the Weather History Date:

Saturday, March 29, 2014

  Actual Average Record
Temperature  
Mean Temperature 88 °F -  
Max Temperature 98 °F 92 °F 100 °F (2013)
Min Temperature 79 °F 78 °F 77 °F (1999)
Cooling Degree Days 24    
Growing Degree Days 38 (Base 50)    
Moisture  
Dew Point 70 °F    
Average Humidity 53    
Maximum Humidity 84    
Minimum Humidity 34    
Precipitation  
Precipitation 0.00 in - - ()
Sea Level Pressure  
Sea Level Pressure 29.76 in    
Wind  
Wind Speed 7 mph ()    
Max Wind Speed 13 mph    
Max Gust Speed -    
Visibility 5.9 miles    
Events      
Averages and records for this station are not official NWS values.
T = Trace of Precipitation, MM = Missing Value Source: Averaged Metar Reports

Daily Weather History Graph

Daily Weather History Graph

Search for Another Location

Airport:

Trip Planner

Search our weather history database for the weather conditions in past years. The results will help you decide how hot, cold, wet, or windy it might be!

Date:

Astronomy

Mar. 29, 2014 Rise Set
Actual Time 5:59 AM ICT 6:11 PM ICT
Civil Twilight 5:38 AM ICT 6:32 PM ICT
Nautical Twilight 5:13 AM ICT 6:57 PM ICT
Astronomical Twilight 4:49 AM ICT 7:22 PM ICT
Moon 4:30 AM ICT (3/29) 4:51 PM ICT (3/29)
Length of Visible Light 12h 54m
Length of Day
12h 12m
Waning Crescent, 3% of the Moon is Illuminated
Mar 29
Waning Crescent
Mar 31
New
Apr 7
First Quarter
Apr 15
Full
Apr 22
Last Quarter

Hourly Weather History & Observations

Time (ICT) Temp. Heat Index Dew Point Humidity Pressure Visibility Wind Dir Wind Speed Gust Speed Precip Events Conditions
12:00 AM 84.2 °F 87.3 °F 68.0 °F 58% 29.80 in 5.6 mi South 5.8 mph - N/A   Partly Cloudy
12:30 AM 84.2 °F 88.4 °F 69.8 °F 62% 29.80 in 5.6 mi SSW 4.6 mph - N/A   Partly Cloudy
1:00 AM 84.2 °F 88.4 °F 69.8 °F 62% 29.80 in 5.6 mi South 6.9 mph - N/A   Partly Cloudy
6:00 AM 78.8 °F - 73.4 °F 83% 29.77 in 5.6 mi SSE 9.2 mph - N/A   Unknown
7:00 AM 80 °F - 76 °F 84% 29.85 in 6 mi South 4.5 mph - -   Partly Cloudy
7:00 AM 80.6 °F 86.2 °F 75.2 °F 84% 29.80 in 5.0 mi SSE 9.2 mph - N/A   Partly Cloudy
7:30 AM 82.4 °F 89.5 °F 75.2 °F 79% 29.83 in 5.6 mi SSE 8.1 mph - N/A   Partly Cloudy
8:00 AM 84.2 °F 90.9 °F 73.4 °F 70% 29.83 in 6.2 mi SSE 9.2 mph - N/A   Scattered Clouds
8:30 AM 84.2 °F 92.3 °F 75.2 °F 74% 29.86 in 6.2 mi SSE 9.2 mph - N/A   Scattered Clouds
9:00 AM 86.0 °F 93.4 °F 73.4 °F 66% 29.86 in 6.2 mi SE 8.1 mph - N/A   Scattered Clouds
9:30 AM 86.0 °F 93.4 °F 73.4 °F 66% 29.86 in 6.2 mi SSE 8.1 mph - N/A   Scattered Clouds
10:00 AM 89.6 °F 98.2 °F 73.4 °F 59% 29.86 in 6.2 mi South 8.1 mph - N/A   Scattered Clouds
10:30 AM 89.6 °F 96.2 °F 71.6 °F 55% 29.86 in 6.2 mi SSE 5.8 mph - N/A   Scattered Clouds
11:00 AM 91.4 °F 98.4 °F 71.6 °F 52% 29.83 in 6.2 mi East 4.6 mph - N/A   Scattered Clouds
11:30 AM 91.4 °F 98.4 °F 71.6 °F 52% 29.83 in 6.2 mi East 4.6 mph - N/A   Scattered Clouds
12:00 PM 93.2 °F 98.8 °F 69.8 °F 46% 29.80 in 6.2 mi SE 6.9 mph - N/A   Scattered Clouds
12:30 PM 95.0 °F 101.3 °F 69.8 °F 44% 29.77 in 6.2 mi SSE 8.1 mph - N/A   Scattered Clouds
1:00 PM 95.0 °F 99.5 °F 68.0 °F 41% 29.77 in 6.2 mi SSE 6.9 mph - N/A   Scattered Clouds
1:30 PM 96.8 °F 101.8 °F 68.0 °F 39% 29.74 in 6.2 mi ESE 8.1 mph - N/A   Scattered Clouds
2:00 PM 96.8 °F 99.0 °F 64.4 °F 34% 29.71 in 6.2 mi East 10.4 mph - N/A   Scattered Clouds
2:30 PM 96.8 °F 99.0 °F 64.4 °F 34% 29.71 in 6.2 mi East 3.5 mph - N/A   Scattered Clouds
3:00 PM 96.8 °F 100.7 °F 66.2 °F 37% 29.68 in 6.2 mi SSE 8.1 mph - N/A   Scattered Clouds
3:30 PM 98.6 °F 102.8 °F 66.2 °F 35% 29.68 in 6.2 mi SE 8.1 mph - N/A   Scattered Clouds
4:00 PM 96.8 °F 99.0 °F 64.4 °F 34% 29.65 in 6.2 mi East 4.6 mph - N/A   Scattered Clouds
4:30 PM 96.8 °F 99.0 °F 64.4 °F 34% 29.65 in 6.2 mi ESE 5.8 mph - N/A   Scattered Clouds
5:00 PM 96.8 °F 99.0 °F 64.4 °F 34% 29.65 in 6.2 mi ESE 8.1 mph - N/A   Scattered Clouds
5:30 PM 96.8 °F 100.7 °F 66.2 °F 37% 29.65 in 6.2 mi ESE 6.9 mph - N/A   Partly Cloudy
6:00 PM 93.2 °F 96.2 °F 66.2 °F 41% 29.65 in 6.2 mi SE 6.9 mph - N/A   Partly Cloudy
6:30 PM 93.2 °F 96.2 °F 66.2 °F 41% 29.65 in 5.6 mi SSE 8.1 mph - N/A   Partly Cloudy
7:00 PM 91.4 °F 95.4 °F 68.0 °F 46% 29.68 in 5.6 mi SSE 8.1 mph - N/A   Partly Cloudy
7:30 PM 91.4 °F 96.8 °F 69.8 °F 49% 29.71 in 5.6 mi SSE 6.9 mph - N/A   Partly Cloudy
8:00 PM 89.6 °F 94.7 °F 69.8 °F 52% 29.71 in 5.6 mi SSE 8.1 mph - N/A   Partly Cloudy
8:30 PM 89.6 °F 94.7 °F 69.8 °F 52% 29.74 in 5.6 mi South 11.5 mph - N/A   Partly Cloudy
9:00 PM - - - N/A% 29.74 in 5.6 mi South 12.7 mph - N/A   Partly Cloudy
9:30 PM 87.8 °F 92.6 °F 69.8 °F 55% 29.74 in 5.6 mi SSW 10.4 mph - N/A   Partly Cloudy
10:00 PM 87.8 °F 92.6 °F 69.8 °F 55% 29.74 in 5.6 mi SSW 9.2 mph - N/A   Partly Cloudy
10:30 PM 86.0 °F 90.4 °F 69.8 °F 58% 29.77 in 5.6 mi SSW 12.7 mph - N/A   Partly Cloudy
11:00 PM 86.0 °F 90.4 °F 69.8 °F 58% 29.77 in 5.6 mi SSW 10.4 mph - N/A   Unknown
11:30 PM 86.0 °F 91.8 °F 71.6 °F 62% 29.77 in 5.6 mi South 9.2 mph - N/A   Unknown